{"data":{"norad_id":56147,"intl_designator":"2023-046BH","name":"STARLINK-5140","alt_names":[],"object_type":"PAYLOAD","status":"ACTIVE","operator":null,"country":"US","launch_date":"2023-03-29","launch_site_code":"AFETR","launch_vehicle":null,"mission":null,"orbit_class":"UNKNOWN","rcs_meters":null,"size_class":null,"mass_kg":null,"dimensions":null,"purposes":["comms"],"wikipedia_slug":null,"has_3d_model":false,"image_url":null,"decayed_at":null,"tle_current":{"epoch":"2026-05-25T04:00:03.998880Z","epoch_age_seconds":70897,"freshness":"FRESH","line1":"1 56147U 23046BH  26145.16671295  .01706030  00000+0  30879-1 0  9997","line2":"2 56147  43.0041  37.5046 0001985 283.8222 249.8666 15.46048621  5847","mean_motion":15.46048621,"eccentricity":0.0001985,"inclination_deg":43.0041,"raan_deg":37.5046,"arg_perigee_deg":283.8222,"mean_anomaly_deg":249.8666,"bstar":0.030879,"rev_number":584,"period_min":93.14066714594,"perigee_km":426.94757105421,"apogee_km":429.64972600668,"semimajor_km":6806.4356485304,"source":"CELESTRAK","updated_at":"2026-05-25T13:38:17.963780Z"}}}